ECMWFFLT2_sfc_dewp_132.txt.gz
Dewpoint
15 16 24 25 21 20 29 30 32 31 32 34 36 40 41 36 33 33 44 43 46 48 49 54 53 56 57 59 60 61 61 62 61 61 61 61 61 58 60 61 61 61 61 61 61 60 60 60 60 62 65 67 67 68 68 67 67 70 69 70 70 71 71
21 24 27 28 27 28 32 30 32 37 37 38 35 29 34 32 27 31 40 42 42 41 39 54 52 53 55 55 59 60 60 62 60 61 61 62 63 63 60 61 64 65 67 63 62 62 61 60 59 62 66 67 67 68 68 68 68 69 70 69 70 70 70
25 29 25 28 30 32 28 32 43 31 32 28 38 35 30 28 30 30 35 42 42 44 44 52 51 54 54 55 56 58 59 60 60 61 62 63 63 62 65 60 62 63 63 64 64 62 62 61 60 62 65 67 67 68 68 68 68 69 70 69 69 70 70
18 22 25 23 31 30 31 33 32 37 37 36 35 36 35 34 31 29 29 38 37 49 50 54 53 55 56 57 57 57 59 58 59 61 62 62 62 63 64 63 61 61 62 63 65 63 62 63 61 62 65 66 67 67 68 68 68 69 70 70 70 70 70
19 20 25 25 32 30 31 31 31 34 38 41 37 43 38 37 33 31 31 30 37 47 55 56 56 56 57 58 57 58 60 60 59 61 61 62 62 63 65 65 64 62 61 62 64 65 64 63 62 63 65 66 67 67 68 69 68 68 70 70 70 70 70
17 16 20 29 31 32 32 33 30 31 32 34 29 29 45 41 34 30 32 31 39 49 58 57 56 58 59 59 58 59 60 61 61 61 62 62 63 64 64 65 65 64 62 64 64 64 66 63 63 63 65 66 67 67 67 68 68 68 69 70 71 71 70
19 19 28 31 31 31 31 32 33 38 43 38 38 28 33 44 46 40 38 34 39 51 56 58 58 59 59 60 60 60 61 61 61 62 64 65 64 64 65 64 66 68 67 65 64 64 64 66 64 64 64 66 67 67 68 69 69 69 69 70 71 71 71
34 28 26 29 32 33 34 35 36 37 35 39 37 37 40 39 41 38 40 36 41 49 56 58 58 59 59 60 60 60 60 61 62 62 64 65 65 66 66 65 67 67 67 66 64 64 64 65 65 64 64 66 67 68 68 69 69 69 70 70 71 71 71
28 28 34 31 27 33 39 37 39 36 38 42 44 43 42 36 39 40 35 32 40 46 57 58 59 58 57 59 61 61 60 60 61 63 64 65 64 64 63 65 66 66 66 66 66 63 63 65 66 65 64 66 67 68 68 69 70 70 70 70 70 70 70
20 21 21 24 24 30 33 43 42 37 40 41 39 37 38 31 39 40 37 36 41 46 52 53 54 54 54 56 60 61 60 61 61 62 63 63 63 62 62 64 65 65 66 65 65 66 64 64 64 66 65 66 67 68 68 69 69 70 70 70 70 70 70
25 29 31 30 40 28 21 30 35 33 39 41 43 41 37 33 38 36 39 40 41 43 45 47 53 55 53 53 58 59 59 59 60 60 62 63 62 62 63 64 65 66 66 66 66 67 66 64 64 65 67 67 67 67 68 69 69 69 70 69 69 69 69
25 24 30 25 33 21 20 20 33 33 38 41 39 36 35 40 37 33 42 46 40 42 46 48 51 53 54 57 59 59 59 60 60 60 61 65 63 63 64 64 65 65 65 66 66 66 67 67 67 67 67 67 68 69 69 69 69 69 69 69 69 69 69
21 18 18 18 23 23 24 20 25 31 38 38 37 36 43 38 34 32 40 46 41 45 48 49 51 52 55 58 60 60 61 60 60 59 59 60 61 63 63 63 64 66 66 66 66 67 68 68 67 67 67 68 69 68 69 69 69 70 70 69 69 68 68
24 20 19 19 17 25 17 20 26 34 37 36 36 39 43 38 40 39 45 47 43 49 50 53 58 59 59 59 60 60 60 59 60 59 59 59 61 62 62 64 65 66 67 67 67 67 67 67 67 68 67 67 68 68 68 69 69 69 70 70 70 69 68
25 23 26 20 16 21 20 19 17 27 35 36 38 38 42 41 42 46 49 48 47 53 57 58 59 59 59 57 58 59 59 60 60 59 59 60 61 62 63 64 64 65 66 67 67 67 66 66 67 67 68 68 69 69 69 69 69 70 70 69 69 70 69
25 26 20 21 27 23 26 31 31 29 24 30 32 34 38 39 40 44 46 45 47 52 58 58 58 57 57 57 57 58 59 60 60 59 60 61 62 63 64 64 65 64 65 66 66 66 67 66 66 67 68 68 69 69 69 69 70 70 69 69 69 69 70
27 28 25 29 30 26 25 31 32 36 34 32 35 39 45 42 43 39 39 41 50 56 59 57 56 58 58 58 58 57 59 59 58 59 60 61 62 63 63 64 65 65 66 65 65 66 67 67 67 68 69 68 68 69 69 69 70 70 69 68 68 68 69
26 28 30 32 27 20 23 37 36 38 33 39 41 44 48 51 46 40 42 47 55 58 57 56 56 57 56 57 57 59 58 58 58 59 61 62 63 63 63 64 64 64 64 65 66 67 67 68 69 69 70 69 68 70 70 70 70 69 69 68 68 68 69
23 29 35 29 19 23 34 40 45 40 47 49 48 49 50 53 55 56 56 56 57 57 57 57 57 57 57 59 59 60 61 61 60 60 62 62 63 62 62 63 64 64 64 64 64 65 67 68 69 70 69 70 70 69 69 69 69 69 69 68 68 68 68
27 29 26 17 23 33 34 35 42 41 45 46 46 47 48 52 55 55 55 56 57 57 57 57 57 57 59 58 60 62 62 62 60 60 60 60 61 61 62 63 63 63 63 63 63 64 66 67 68 69 69 69 69 69 69 69 69 69 69 68 68 68 68
20 27 28 23 35 31 36 38 37 35 35 37 42 43 46 50 54 56 56 56 57 57 57 57 57 58 58 56 56 60 61 61 61 61 60 62 62 62 62 64 65 64 65 65 66 66 66 66 66 67 68 69 69 69 69 69 69 69 69 68 68 68 68
31 26 23 27 26 22 31 38 39 35 39 43 47 46 44 49 55 58 57 56 56 56 57 56 57 57 55 52 53 57 61 61 61 62 62 63 63 63 62 63 63 64 66 66 66 65 64 65 65 66 67 68 69 68 68 68 68 68 68 68 68 68 68
29 28 24 22 23 27 38 40 41 40 43 46 47 45 42 47 52 58 58 56 57 56 56 55 55 53 50 50 52 58 60 61 62 61 62 63 63 62 62 63 63 65 65 65 65 65 64 63 64 65 65 68 68 68 68 69 68 68 68 68 68 68 69
35 29 24 21 29 29 38 44 42 40 41 41 33 25 34 46 50 56 57 56 56 56 55 55 54 52 48 50 54 58 60 60 60 61 61 62 62 62 63 64 64 64 64 64 63 63 63 63 64 65 65 67 68 68 68 68 68 68 68 68 67 68 69
35 35 26 25 27 41 46 46 47 46 49 38 27 24 34 46 51 56 56 56 56 56 55 55 53 55 55 56 58 61 61 61 61 62 62 62 63 63 64 63 64 63 63 62 62 63 63 63 64 65 67 68 67 67 67 67 67 68 68 68 68 68 68
30 31 27 28 32 40 44 47 48 48 41 33 33 40 47 50 51 52 56 56 57 57 55 55 56 56 59 61 61 61 62 62 62 62 62 62 62 62 62 63 62 61 61 61 61 62 62 62 63 64 65 66 66 67 66 66 67 68 68 68 68 67 67
32 31 28 25 26 39 45 48 45 50 39 39 46 48 50 54 54 56 57 58 58 58 57 58 58 58 58 60 60 61 62 62 62 61 61 62 61 61 61 60 61 60 60 60 61 61 62 62 62 63 65 65 65 66 66 66 67 68 68 68 67 66 66
30 32 33 31 33 39 50 47 41 45 48 46 51 49 51 55 56 56 56 57 59 59 59 59 57 57 58 59 60 60 61 62 62 61 62 62 61 61 60 60 60 60 59 60 60 61 61 61 62 62 63 64 65 65 65 66 67 67 66 66 66 66 65
35 36 37 40 43 45 46 50 48 50 52 56 52 50 52 54 54 56 56 57 58 59 59 58 58 57 57 58 59 59 60 60 60 61 60 59 59 59 59 59 60 60 59 59 59 60 60 60 60 60 60 62 63 64 65 66 66 66 66 66 65 65 65
43 46 46 50 46 46 48 51 53 51 51 52 52 52 53 55 55 56 56 58 58 59 59 58 57 57 58 58 59 59 60 60 60 59 58 58 58 58 58 59 59 59 59 59 58 58 58 59 59 59 59 60 60 61 64 65 65 65 65 64 64 64 64
32 30 45 44 45 50 53 53 55 55 55 53 54 53 54 56 57 58 58 58 59 60 59 58 57 57 58 58 59 59 59 59 57 56 55 56 56 56 56 57 57 56 57 57 57 57 56 57 57 57 58 59 59 61 62 63 63 63 63 62 62 60 60
33 36 45 51 51 52 53 53 54 54 54 55 56 55 56 58 58 58 59 59 59 59 58 57 58 57 58 58 58 58 58 56 55 54 54 54 54 55 55 55 55 54 55 55 55 55 56 56 57 56 57 57 59 59 60 61 61 61 60 60 59 59 59
42 49 51 51 50 51 52 53 52 52 53 54 56 57 58 58 57 58 59 59 59 59 58 59 59 58 57 59 59 58 56 55 54 54 54 53 53 53 53 54 54 53 54 54 54 54 54 53 54 55 56 57 59 59 59 58 58 58 59 60 58 57 58
40 45 46 47 45 45 48 53 55 56 57 57 58 58 59 58 58 58 59 59 59 58 59 59 59 58 58 57 57 56 55 54 54 54 54 54 53 53 55 56 57 57 55 52 51 53 53 55 55 55 56 58 59 60 61 60 57 56 56 54 54 53 54
40 44 48 49 47 48 50 54 56 58 59 59 59 59 59 59 58 59 59 58 57 57 57 59 59 57 57 57 57 56 55 55 56 56 56 55 55 56 59 59 58 57 57 58 57 56 57 58 57 57 56 56 57 59 60 61 58 56 54 53 52 52 52
48 50 50 51 52 52 54 55 56 58 59 59 59 58 58 58 58 59 59 58 57 56 57 58 58 57 57 57 57 56 56 57 58 57 57 57 58 59 59 59 59 58 58 58 57 58 58 58 56 56 55 57 59 60 60 60 57 56 55 53 51 52 53
47 52 53 55 55 55 55 56 57 58 58 58 57 58 58 57 59 59 59 58 58 57 57 57 57 57 57 57 57 56 57 57 58 59 59 59 59 58 58 58 59 59 59 58 58 58 58 58 59 59 58 58 59 60 60 58 56 56 55 54 52 52 53

ECMWFFLT2_sfc_dewp_135.txt.gz
Dewpoint
17 18 24 24 25 25 30 29 28 29 31 36 35 41 38 34 30 31 42 41 44 47 49 50 53 54 55 56 57 60 61 62 62 62 63 62 62 60 60 61 61 61 61 61 62 62 62 63 63 63 64 65 66 66 66 66 67 68 67 68 69 69 70
24 24 28 31 31 25 32 29 30 36 38 36 31 25 31 30 25 28 38 40 41 40 40 51 53 53 54 56 57 59 59 61 61 62 62 62 62 60 60 61 62 62 62 61 61 62 63 62 63 63 64 65 66 66 66 66 66 67 68 68 68 69 69
25 26 29 28 31 32 29 32 37 31 30 27 34 30 26 25 26 27 32 40 43 41 41 50 52 53 54 55 57 57 58 58 60 61 62 62 62 62 61 61 61 62 62 62 61 62 63 63 63 63 64 66 66 66 67 66 66 67 68 67 68 69 69
17 23 27 26 30 31 32 33 31 38 38 35 32 32 34 31 27 28 27 36 36 45 47 52 52 54 55 56 56 56 59 59 60 60 62 62 62 63 64 62 62 62 62 62 61 61 62 62 62 63 64 65 66 66 67 67 66 67 67 68 68 69 69
20 19 27 26 32 31 32 30 30 33 37 40 37 41 35 32 31 28 29 29 34 42 51 54 54 56 57 57 56 57 58 60 61 61 62 63 63 63 64 65 64 64 64 62 62 63 62 62 62 63 64 65 66 66 67 67 67 66 67 68 68 69 69
19 19 22 22 31 31 31 32 32 33 32 32 31 30 40 40 31 28 29 29 34 40 56 56 56 57 58 59 58 57 59 60 60 60 62 63 62 64 64 67 66 66 65 66 67 65 65 63 62 62 64 65 66 66 67 67 67 67 67 68 68 69 69
21 19 21 31 32 33 33 30 31 35 38 35 34 28 33 39 41 39 35 32 37 44 55 57 57 57 58 59 59 59 60 59 60 61 62 64 64 64 65 66 66 67 66 66 66 66 66 64 63 62 63 65 66 66 67 67 67 67 67 68 69 69 69
37 27 29 31 33 34 32 35 39 35 32 35 33 33 36 36 39 35 36 34 38 45 54 57 57 57 58 58 59 59 59 60 60 61 62 63 64 64 64 65 66 66 66 67 66 66 65 65 65 63 63 65 66 66 67 67 68 67 68 69 69 69 69
25 27 28 26 32 35 40 36 39 40 41 42 42 41 40 35 38 35 32 29 36 42 55 57 57 57 57 57 59 59 58 59 60 61 62 63 63 63 63 64 65 66 66 66 66 66 65 65 66 66 64 64 65 66 67 67 68 68 68 69 69 70 69
22 23 24 24 22 25 31 42 41 40 38 39 36 33 36 29 36 38 35 33 38 42 47 50 52 53 53 54 58 60 59 59 60 60 61 62 61 61 62 64 64 65 65 66 66 67 66 66 66 66 67 65 65 66 67 67 68 68 68 69 69 70 70
21 27 32 34 40 23 20 28 36 34 39 42 40 38 34 29 35 37 38 37 37 39 42 45 47 52 52 51 55 57 57 58 59 59 60 61 61 61 62 64 64 65 65 65 66 66 67 67 66 66 67 67 66 67 67 67 68 68 69 69 69 70 70
25 30 33 29 37 21 24 20 24 33 40 39 37 34 33 38 37 33 40 43 37 37 41 44 46 48 51 54 55 57 56 57 58 59 59 63 61 62 62 63 64 64 64 65 65 66 66 67 67 67 66 67 66 67 67 67 68 68 69 69 69 70 70
27 27 24 25 26 25 25 22 19 28 38 39 36 36 40 39 34 31 38 42 38 40 44 44 47 49 49 50 55 58 58 59 59 57 58 58 59 61 62 62 63 64 64 65 65 66 66 67 67 67 67 67 68 68 69 68 68 68 69 69 69 69 70
22 22 22 22 18 26 27 23 21 27 38 39 36 36 43 38 37 38 41 42 39 41 48 51 50 53 53 56 57 58 58 58 58 58 58 59 59 61 62 63 64 64 65 66 65 66 66 67 67 67 67 67 67 67 67 69 69 69 70 69 69 69 69
25 26 29 23 23 23 24 27 32 26 36 39 39 41 42 42 41 47 47 44 42 46 54 55 57 57 57 56 57 57 57 58 59 57 58 60 61 62 63 64 64 64 65 65 65 66 66 66 67 67 67 68 68 68 68 68 69 70 70 69 69 69 69
23 25 24 25 30 27 31 32 32 31 35 37 31 35 42 39 38 45 45 42 42 47 54 57 56 56 56 55 55 56 58 59 58 57 58 61 62 63 64 64 65 65 65 65 65 65 66 66 66 67 67 68 68 67 68 68 69 70 69 69 69 69 69
26 25 29 28 30 25 23 29 30 34 33 35 40 44 47 44 45 44 41 41 45 47 56 55 54 56 55 55 55 55 57 57 58 57 59 61 62 64 63 64 65 65 65 65 65 65 66 66 66 67 68 68 68 68 68 68 69 69 69 69 69 69 70
23 24 32 32 22 17 21 33 34 37 37 41 38 42 48 51 46 43 43 43 49 55 56 55 53 54 55 55 56 57 58 59 59 61 62 62 64 64 62 62 63 63 64 64 65 66 67 67 68 68 69 69 69 69 69 69 69 69 68 68 69 69 69
20 28 32 24 17 22 32 37 43 40 42 48 48 49 51 52 53 52 51 53 54 56 56 55 55 55 57 58 58 59 60 60 60 60 61 61 61 61 62 63 64 64 64 64 64 64 65 67 68 69 69 69 69 69 69 69 69 68 68 68 68 68 69
25 24 24 15 21 30 37 41 49 51 48 48 43 43 48 49 53 53 52 53 55 55 55 56 57 57 58 56 57 59 60 60 59 58 59 59 59 60 63 63 64 65 65 64 64 64 65 66 66 67 68 68 69 69 69 69 69 68 68 68 68 68 68
21 24 22 22 33 28 38 41 44 43 41 40 37 37 44 49 51 54 53 54 55 56 55 56 56 56 55 54 55 57 59 59 60 59 59 60 62 63 63 64 64 65 65 66 66 66 66 65 65 65 66 67 68 68 68 69 68 68 68 68 68 68 68
30 22 20 21 20 18 27 38 41 40 39 41 45 45 43 48 51 55 55 55 54 55 55 55 55 54 51 48 50 55 59 60 60 61 63 64 64 64 64 64 64 65 65 65 65 65 64 64 64 64 65 65 66 67 68 68 68 68 68 68 68 68 68
26 26 22 20 20 25 35 37 38 42 47 47 46 33 30 44 51 57 56 54 54 55 55 54 53 50 45 45 49 53 58 60 62 62 63 63 63 63 64 64 64 64 64 64 64 64 63 63 63 64 64 64 65 66 67 67 68 67 68 68 68 68 68
33 27 24 19 29 29 35 41 44 43 43 38 32 26 28 40 50 57 56 54 54 55 54 53 52 49 45 46 51 57 61 62 62 62 62 62 63 63 64 64 64 64 63 62 62 62 63 63 63 63 63 64 64 64 65 67 67 67 67 68 68 68 68
36 32 24 24 25 36 43 44 47 47 46 34 27 24 30 40 51 57 57 55 55 55 54 54 51 53 52 53 56 61 62 62 62 62 62 62 62 62 63 63 63 61 60 61 62 62 62 62 62 63 63 63 63 64 65 67 67 68 67 67 68 68 68
26 29 25 25 30 36 42 45 46 48 37 28 28 34 41 47 51 55 57 55 55 55 55 55 53 54 58 60 60 61 62 62 62 62 61 61 60 61 61 62 61 59 59 61 61 62 62 62 62 62 64 64 64 64 65 66 67 68 67 67 67 67 67
31 32 28 24 23 34 41 42 42 45 34 34 40 45 50 50 50 54 56 55 56 56 55 55 55 57 59 60 60 60 60 61 61 61 61 60 60 60 59 59 60 60 59 60 60 60 60 60 61 61 64 65 66 66 66 67 68 68 67 67 66 66 66
27 28 25 25 29 37 46 42 36 41 44 43 47 47 47 53 53 54 55 55 57 57 56 56 56 57 59 59 60 59 59 60 61 61 60 60 59 59 59 59 60 61 59 60 59 59 59 59 60 61 62 64 65 65 65 67 68 68 67 66 66 65 65
32 32 34 39 43 42 47 46 46 46 49 50 50 48 49 53 53 55 55 56 56 58 57 56 57 57 58 59 59 59 60 60 60 59 58 58 57 58 58 58 60 59 59 59 58 58 58 59 59 60 61 63 64 64 65 66 66 66 66 66 65 65 64
42 43 43 45 45 47 48 51 51 49 52 52 51 52 52 53 54 56 56 56 57 57 57 57 54 56 58 58 58 59 60 59 59 58 56 56 56 56 56 56 57 58 58 58 57 57 57 57 58 60 60 61 62 63 65 65 65 64 64 64 64 64 64
32 29 40 44 43 51 50 51 54 54 53 52 53 52 52 53 55 56 56 57 57 57 57 57 57 57 57 58 58 59 58 56 55 55 54 54 54 54 54 55 57 56 57 56 56 56 56 56 57 58 59 60 61 62 63 63 63 63 63 63 63 62 61
33 34 45 51 52 52 52 52 50 50 52 53 53 53 54 54 56 56 56 57 57 58 57 56 57 57 57 58 57 56 55 54 54 53 53 53 53 54 54 55 56 55 55 55 54 54 55 55 57 58 58 59 59 60 61 61 61 61 61 61 60 60 60
46 49 50 50 50 50 51 52 52 53 54 54 55 56 57 57 56 57 58 57 57 58 57 57 58 57 57 58 57 55 54 53 53 52 53 52 52 53 54 54 55 54 53 53 54 55 55 56 56 57 58 59 59 59 60 60 60 60 60 61 60 59 59
43 45 47 47 44 45 48 50 52 54 54 55 56 56 56 56 56 56 58 57 56 57 57 58 58 58 57 57 55 54 54 53 52 52 52 52 52 54 56 56 54 53 54 54 55 56 56 56 56 56 57 58 59 59 58 58 59 59 59 58 58 58 58
41 44 48 48 46 47 49 51 54 56 57 57 56 56 56 56 56 57 58 56 55 56 56 57 58 58 58 56 55 54 54 53 53 53 52 52 53 57 58 54 54 54 56 58 58 56 56 56 56 57 58 59 59 60 59 58 57 56 56 56 56 57 58
46 45 48 50 49 48 50 54 55 56 57 57 57 57 57 57 57 57 57 57 56 54 56 56 57 58 57 56 54 54 54 55 54 54 53 53 55 58 59 57 58 59 59 59 57 56 56 56 56 56 58 59 60 61 59 58 56 54 54 54 54 54 54
41 49 50 51 53 54 54 55 56 57 58 58 58 56 56 57 57 58 58 56 56 57 57 56 55 57 56 55 54 54 55 55 55 56 57 57 57 57 58 59 59 59 58 58 58 58 57 57 57 58 59 59 60 60 59 56 54 52 53 53 52 52 53

ECMWFFLT2_sfc_dewp_138.txt.gz
Dewpoint
18 17 26 27 25 21 27 28 26 29 32 38 39 42 35 33 29 28 40 40 43 45 47 50 54 54 55 56 57 59 59 61 62 62 62 63 63 63 61 61 61 61 61 62 63 63 63 64 63 63 64 65 66 66 66 66 66 66 66 68 68 70 70
28 28 31 31 31 25 30 28 29 36 37 33 29 25 29 29 25 27 38 39 40 37 38 50 53 54 54 55 56 58 58 60 61 61 62 63 63 63 63 63 63 62 61 62 63 63 64 64 63 64 65 65 66 66 66 66 66 66 66 67 67 68 70
23 25 28 28 32 33 25 30 36 29 29 27 31 27 23 23 23 26 31 38 42 39 40 47 50 53 53 55 56 56 58 59 59 60 62 62 63 63 62 63 64 64 63 62 63 64 64 65 65 64 64 65 66 66 66 66 66 66 66 66 66 68 69
18 21 26 23 31 32 33 33 31 38 38 33 30 28 30 28 25 28 27 35 33 43 43 50 51 53 54 55 55 56 57 59 60 60 61 62 62 63 64 64 65 66 67 67 67 66 66 67 65 65 65 64 65 65 66 66 67 67 67 66 67 67 68
21 21 27 24 32 31 31 30 30 33 36 39 37 40 33 28 29 28 27 28 34 38 44 52 52 54 55 56 56 56 57 58 60 61 61 62 63 63 64 64 64 65 66 66 66 66 67 66 65 65 65 64 65 65 66 67 66 66 66 67 67 67 68
20 20 26 23 31 31 31 31 31 34 33 32 28 30 37 37 31 27 28 28 33 38 53 54 54 55 57 57 57 57 58 59 59 60 61 63 63 63 64 64 65 66 66 66 66 66 66 64 65 64 64 65 65 65 65 66 66 66 66 67 68 68 68
21 20 22 28 28 33 32 30 32 35 36 35 33 24 31 36 39 37 33 31 35 43 50 56 56 57 58 58 58 58 59 59 59 60 62 63 63 64 64 65 65 65 65 65 66 66 67 66 65 65 64 64 65 66 67 67 67 67 67 67 68 68 68
35 29 29 33 36 34 32 35 37 33 32 34 32 31 35 34 38 34 34 33 36 42 52 56 56 57 58 57 58 58 59 59 60 61 62 62 63 63 63 64 66 66 65 66 65 65 66 67 66 65 64 64 65 66 67 67 67 68 68 68 68 69 68
29 29 31 31 33 37 39 35 39 40 41 39 39 39 39 36 37 35 31 27 33 40 51 54 56 57 56 56 57 59 58 58 60 60 61 62 62 62 62 63 64 66 66 66 66 66 65 66 66 66 65 64 65 66 67 67 68 68 68 68 68 69 69
24 23 24 27 28 29 30 40 41 41 38 38 36 34 35 26 35 35 32 31 35 39 45 47 50 52 53 53 55 58 58 58 59 59 61 61 61 61 62 62 64 64 65 66 66 66 66 66 66 66 67 65 65 66 67 67 67 68 68 68 68 69 69
26 28 31 35 41 24 18 24 35 35 40 39 39 36 31 27 33 35 37 36 35 37 40 45 47 50 51 51 53 57 58 58 58 58 60 61 60 61 62 63 64 64 65 65 65 66 67 67 67 67 66 66 66 66 67 67 68 68 69 69 69 69 69
26 31 32 24 37 22 25 21 27 32 39 38 36 32 32 36 36 31 40 41 36 36 39 41 43 45 49 52 52 54 56 57 58 58 59 62 60 61 62 62 63 64 64 65 65 66 66 67 68 68 68 67 66 66 66 67 68 68 68 68 69 69 69
29 28 29 28 27 24 25 21 20 22 38 37 35 35 38 37 32 29 35 40 38 39 41 43 43 45 48 50 52 55 58 58 59 58 58 59 61 62 63 63 63 64 64 65 65 66 66 67 67 67 68 67 67 67 67 68 68 68 69 69 69 68 69
22 23 24 25 18 27 24 22 20 19 34 38 36 36 41 37 37 38 38 41 39 39 40 43 49 52 53 58 58 58 58 59 59 58 58 61 63 63 64 64 64 64 65 65 65 66 66 67 67 67 67 67 67 67 67 68 69 69 69 69 69 69 69
24 25 33 23 20 22 23 22 33 30 30 37 40 41 42 41 38 46 44 42 41 43 45 52 57 57 56 56 56 56 58 59 59 58 58 61 62 63 64 64 64 64 65 65 65 65 66 66 67 67 67 67 67 67 68 68 69 70 70 69 69 69 69
21 24 23 26 31 27 27 31 32 34 35 36 36 37 42 38 38 44 42 38 39 43 49 56 55 55 55 55 56 57 59 59 59 58 58 59 60 61 63 63 64 64 64 65 65 65 66 66 67 67 67 68 68 68 68 68 68 70 70 70 69 69 70
22 25 31 30 26 24 22 28 29 34 37 38 37 43 45 42 43 42 37 37 41 44 53 54 53 55 54 54 56 56 57 59 58 56 57 59 60 61 63 63 64 64 64 64 64 65 66 66 67 67 68 68 68 68 68 68 69 69 70 70 70 70 70
24 25 32 29 21 18 22 32 34 34 34 39 37 39 44 48 44 42 42 41 48 54 54 53 52 53 56 57 57 57 58 59 60 61 62 62 62 62 62 63 63 63 63 64 64 65 65 66 67 68 69 69 68 69 69 69 69 69 69 69 70 70 70
21 29 29 20 17 21 32 36 41 39 38 42 40 49 50 51 52 52 50 52 54 54 54 55 56 56 58 59 60 60 60 61 61 61 61 62 62 62 62 62 63 64 64 64 64 64 65 65 66 67 67 68 69 70 70 69 69 69 69 69 69 70 70
26 23 24 15 21 29 34 41 47 50 48 49 42 40 42 49 52 51 50 52 54 55 56 57 58 58 59 58 58 60 61 62 61 60 60 61 62 62 62 63 64 64 64 64 65 65 66 66 66 66 66 67 68 68 69 69 69 69 69 68 69 69 70
22 25 20 21 31 32 40 39 44 45 41 41 35 32 34 45 50 53 52 53 54 55 57 57 58 57 55 51 54 56 60 61 60 60 59 60 62 63 63 64 64 65 65 64 65 65 65 65 65 65 65 65 65 66 67 68 69 69 69 68 68 69 69
30 23 20 20 19 21 30 38 42 41 43 42 40 36 36 44 49 54 54 54 55 55 55 57 56 51 48 46 48 54 59 61 61 61 62 63 64 64 64 64 64 64 64 64 64 64 63 63 63 64 64 64 64 64 65 66 68 69 69 68 68 68 69
26 25 21 20 19 24 29 32 35 41 44 43 43 33 29 36 48 55 55 54 54 55 55 55 54 49 44 44 47 52 58 61 63 63 63 64 63 63 64 64 63 64 63 63 63 63 62 62 63 63 63 63 63 63 64 64 65 67 68 68 68 68 69
28 25 21 18 27 26 32 39 42 43 46 37 33 26 29 37 50 56 56 54 54 54 54 54 52 49 44 46 49 56 61 63 63 62 62 62 62 62 63 63 63 63 62 61 61 61 62 62 63 63 63 63 63 63 63 64 64 64 66 68 69 69 69
35 29 24 24 24 34 41 43 44 46 44 34 28 25 31 39 50 56 57 55 54 55 55 55 52 53 50 51 57 61 62 62 62 62 62 62 62 62 62 62 63 61 60 60 61 61 62 62 62 62 62 62 62 63 64 64 64 64 66 68 69 69 69
27 27 22 24 29 34 40 44 45 46 37 28 28 33 40 44 51 56 57 55 54 55 56 55 52 52 55 60 61 62 62 62 61 62 61 61 61 61 62 62 61 60 60 60 61 60 60 60 61 61 61 61 62 63 63 63 64 65 66 67 68 68 68
28 31 27 23 19 30 41 43 42 40 33 33 37 43 48 50 52 56 57 56 55 55 55 55 54 58 60 61 61 62 62 61 61 61 61 60 59 59 59 58 60 61 60 60 59 59 59 59 60 60 61 61 63 65 65 65 66 66 66 68 68 68 68
25 26 25 25 28 35 43 39 35 41 41 41 43 48 47 51 52 55 56 56 55 56 55 55 56 59 59 60 61 61 61 61 61 60 60 58 58 58 58 58 59 60 59 59 58 59 59 59 59 60 61 61 63 64 64 66 67 67 67 68 68 67 68
31 29 30 33 40 39 43 45 44 44 47 47 48 48 48 50 52 54 55 56 56 57 56 56 57 58 60 60 60 60 60 61 60 59 58 57 57 57 57 56 58 58 58 58 58 58 57 58 59 60 61 61 62 62 64 66 67 67 67 67 67 67 67
40 41 39 43 44 46 46 48 50 49 51 52 49 49 49 52 53 55 54 55 56 57 57 57 57 59 59 59 59 60 60 60 59 58 56 55 55 55 55 56 57 57 57 57 57 57 57 58 59 60 60 61 61 61 63 64 65 65 65 66 66 66 65
33 28 39 47 44 49 50 50 52 54 52 52 51 51 52 53 55 56 55 56 57 58 57 58 57 57 59 59 60 60 59 57 56 55 55 54 54 54 54 55 57 56 56 55 56 57 56 57 58 58 59 60 61 61 62 62 63 63 63 63 63 63 63
33 34 41 48 52 52 52 52 49 49 51 53 53 53 54 54 56 56 56 57 57 58 57 57 58 58 59 59 59 58 56 55 55 54 54 53 53 53 54 55 56 54 55 55 56 56 56 57 58 58 59 59 60 60 61 62 61 61 61 62 61 61 62
46 48 49 50 49 48 50 52 52 52 52 53 55 56 56 57 57 57 57 57 57 58 57 57 58 58 59 59 58 57 54 54 54 53 53 52 52 53 54 54 55 55 56 56 56 56 56 57 58 58 58 59 59 60 60 61 61 61 61 61 60 60 60
41 43 45 48 41 41 46 49 51 52 53 55 56 56 56 56 57 58 57 57 57 56 57 58 59 58 58 58 57 55 54 54 53 52 52 53 54 55 55 54 55 56 57 56 56 56 56 58 58 58 58 58 58 58 59 60 60 60 61 60 59 59 59
39 43 47 49 46 45 46 48 51 54 55 56 55 55 55 55 56 57 57 57 56 57 57 58 58 58 58 57 56 55 54 53 53 52 52 53 55 56 54 54 57 58 56 56 56 56 57 58 58 58 58 58 57 58 58 59 59 59 59 60 59 59 59
43 44 45 49 48 46 49 51 54 56 56 56 55 55 56 56 57 57 57 57 57 56 56 57 58 58 57 56 55 55 54 54 53 53 52 53 54 57 58 57 58 57 56 57 57 58 58 58 58 57 57 58 58 58 58 58 58 57 57 57 57 58 58
40 45 48 50 50 53 55 54 56 57 57 57 57 57 57 57 56 57 57 55 56 58 57 57 57 58 57 55 55 55 54 54 54 53 55 57 59 58 58 58 58 58 58 58 58 57 57 57 58 59 58 58 59 59 59 59 58 56 56 56 56 56 57

ECMWFFLT2_sfc_dewp_141.txt.gz
Dewpoint
22 17 25 27 23 13 24 19 17 22 30 31 37 37 33 34 33 29 45 42 45 46 46 48 53 54 57 57 58 59 61 62 64 63 63 63 63 64 64 64 63 64 64 63 64 65 65 65 66 66 67 68 69 69 69 70 70 70 70 71 70 71 73
29 28 29 32 30 25 26 23 23 34 34 33 31 25 35 32 26 29 39 34 36 39 28 50 52 52 54 56 56 58 61 61 61 62 65 66 65 65 66 66 65 64 64 64 64 66 68 68 66 66 68 68 69 69 69 68 69 70 68 69 68 70 71
26 21 26 29 33 33 25 30 35 28 28 27 37 34 27 24 25 26 32 35 37 41 38 47 51 52 51 54 57 57 56 59 60 61 63 65 66 66 66 65 65 65 64 64 68 68 68 67 67 66 66 67 68 68 67 67 68 67 67 66 67 69 69
20 22 24 21 30 32 33 32 29 36 35 38 33 32 32 28 29 31 29 34 25 44 40 44 49 53 54 54 56 56 58 59 60 61 62 64 65 66 66 65 65 65 64 66 67 68 68 68 67 65 66 65 65 66 66 67 67 68 67 66 67 68 68
21 21 23 18 29 30 29 29 30 34 37 37 37 39 35 29 30 30 27 25 31 39 46 50 51 55 56 56 57 59 59 60 60 62 63 65 66 66 67 67 66 65 66 66 67 68 67 67 66 65 66 65 65 65 66 67 67 66 66 66 67 68 68
18 20 23 24 27 32 29 27 29 31 31 32 30 33 40 37 31 31 31 27 33 41 50 53 53 54 56 59 59 59 60 61 63 64 65 65 66 67 66 65 66 67 67 66 67 67 66 66 66 67 65 65 65 65 65 65 65 66 65 66 68 69 69
21 26 28 32 27 31 31 30 28 35 36 33 27 22 39 40 37 36 37 31 31 46 50 55 57 58 58 60 60 59 60 62 63 65 65 66 66 66 67 67 67 67 67 68 68 67 66 66 66 66 65 65 66 67 68 67 67 68 67 67 69 71 71
28 30 30 33 33 34 31 33 35 33 28 30 28 29 38 35 40 35 36 32 27 43 55 58 58 61 60 60 59 60 60 62 63 66 65 66 66 66 66 67 68 68 67 68 68 67 67 69 69 68 67 67 67 68 70 69 69 70 69 70 70 71 70
28 27 32 29 31 33 34 33 39 39 37 36 39 42 43 34 38 35 30 25 24 44 51 57 58 57 56 58 59 61 61 62 63 64 64 65 65 66 66 66 67 67 68 68 68 69 69 68 69 69 67 67 68 68 69 68 69 70 69 70 70 71 70
19 21 23 20 26 29 28 40 40 40 37 40 39 32 39 27 43 39 32 27 33 42 46 50 54 56 56 57 58 59 63 63 63 62 63 64 64 65 66 67 67 66 67 68 69 69 69 69 69 69 70 68 67 69 69 69 70 71 71 70 70 71 70
21 27 42 35 37 26 22 27 36 36 38 37 41 42 36 28 39 38 38 40 37 38 41 48 51 53 54 54 56 57 61 62 62 63 63 63 63 64 65 66 66 67 67 67 68 69 69 69 69 69 69 69 69 69 69 69 69 70 71 71 71 72 71
35 36 36 26 38 27 24 25 34 37 37 37 36 31 30 47 37 30 41 49 38 32 40 45 48 50 54 55 56 57 60 62 62 62 63 63 64 64 65 66 66 66 67 67 68 68 69 69 70 70 69 69 69 69 69 69 69 69 68 70 71 71 71
28 30 26 32 26 22 24 24 27 35 40 38 36 36 40 40 30 28 41 50 42 40 40 43 46 50 51 52 57 57 62 62 61 62 63 63 63 64 64 65 66 66 66 67 67 68 68 69 69 70 71 71 70 70 70 70 69 70 71 71 71 69 71
24 25 25 24 20 26 21 19 20 24 34 36 33 37 41 37 40 45 43 50 43 39 42 43 54 55 57 60 60 61 61 61 61 61 62 62 63 63 64 65 65 65 66 67 67 67 68 68 68 69 69 70 70 70 69 70 70 70 71 71 72 71 71
22 25 28 22 20 22 19 20 26 25 23 29 35 36 39 41 41 43 43 46 46 48 50 58 59 59 60 60 60 61 61 61 61 61 61 63 63 64 63 64 64 65 65 66 66 66 67 67 68 68 69 69 69 69 70 70 71 71 70 71 71 72 72
20 24 22 26 24 21 23 26 28 30 28 29 33 35 39 38 39 46 43 39 38 48 54 59 59 59 59 59 60 60 61 61 61 61 61 62 62 63 63 64 64 64 64 65 65 65 66 66 67 68 68 68 69 69 69 70 70 71 71 71 71 72 72
23 26 29 24 23 22 21 22 23 32 35 40 37 39 44 40 43 42 37 35 47 52 58 58 59 58 58 59 60 60 61 61 60 60 61 62 63 63 64 64 64 64 64 64 65 65 66 66 67 67 68 68 69 69 69 70 70 71 71 71 71 72 72
27 27 28 27 24 20 21 36 37 35 31 38 35 35 39 45 44 41 46 45 51 55 57 57 58 58 59 61 62 61 62 62 61 62 62 62 63 63 63 64 63 64 63 64 64 65 65 66 67 67 68 68 69 70 70 70 70 70 70 70 71 71 72
27 30 29 23 20 21 37 38 45 44 36 38 36 43 48 45 50 52 50 52 56 59 58 59 59 60 60 60 61 61 61 62 62 61 62 62 62 62 63 63 63 63 64 64 65 65 65 66 67 66 66 66 67 67 68 69 70 70 70 70 70 71 71
29 27 26 21 21 34 33 40 48 48 43 42 43 44 49 52 47 52 50 55 58 58 58 59 59 59 60 60 61 61 62 62 62 62 62 62 63 62 62 62 63 64 64 64 64 65 66 65 65 65 65 65 65 65 66 67 68 69 70 70 69 70 71
25 27 24 23 37 27 37 40 45 43 45 44 40 27 38 49 53 53 53 58 58 58 58 59 59 60 58 57 59 61 62 62 62 63 63 63 63 63 63 64 64 64 64 65 65 64 64 64 63 63 64 64 64 64 64 65 66 68 69 69 69 69 70
31 26 23 23 22 21 31 45 45 48 43 45 42 38 34 49 52 56 57 59 58 58 58 59 59 59 55 45 50 61 62 63 63 63 63 64 64 64 64 64 64 64 64 65 64 63 63 62 63 63 63 63 63 63 64 64 65 66 67 68 70 70 70
28 27 23 23 24 26 38 38 42 43 43 41 45 32 29 45 52 55 56 59 59 59 59 59 58 52 42 41 46 59 62 63 64 63 63 63 63 63 64 63 63 63 63 63 63 63 62 62 62 63 64 64 63 63 64 64 64 64 65 67 68 69 70
30 28 24 22 33 24 37 45 41 41 46 41 37 27 26 44 52 55 57 59 60 60 60 60 56 47 44 42 50 59 62 63 63 63 62 62 62 63 62 63 63 63 63 62 62 61 61 62 63 63 63 63 63 63 64 64 65 65 65 66 68 69 70
32 31 25 26 29 39 44 42 45 46 44 39 29 25 26 48 53 57 57 59 61 61 60 59 52 54 54 57 61 62 63 62 62 63 63 63 62 61 61 61 63 61 61 61 61 61 62 62 62 63 63 62 63 63 64 65 65 66 67 67 67 68 69
28 28 23 23 35 40 40 46 45 49 41 31 30 39 53 55 56 60 58 59 60 61 61 60 57 58 57 60 62 62 61 60 60 60 60 61 61 61 62 62 61 60 60 61 61 62 62 61 62 62 62 62 62 63 64 64 66 67 68 68 68 67 67
30 32 25 25 22 33 44 48 45 44 39 36 49 51 48 54 57 59 60 58 59 60 59 60 59 59 60 60 61 61 61 60 60 61 61 61 61 61 61 60 60 59 60 60 60 60 61 61 62 62 62 62 62 63 63 65 66 67 68 68 68 68 67
27 27 27 25 33 45 48 44 39 42 45 50 52 50 49 55 58 59 59 60 60 59 59 59 59 60 60 60 61 61 61 60 61 61 62 62 61 61 59 59 59 59 60 59 59 60 60 60 61 61 61 61 62 62 63 64 65 67 68 69 68 68 68
32 31 32 43 44 45 47 50 50 54 52 51 53 54 52 54 56 61 58 59 60 60 59 60 60 60 60 61 61 61 60 61 60 61 61 61 61 59 59 57 59 59 58 59 59 59 59 59 60 61 61 61 61 62 63 64 64 66 68 69 68 68 69
45 45 44 47 47 47 45 44 51 51 53 49 51 52 52 55 58 59 59 61 60 60 61 60 60 60 61 61 61 61 61 61 61 62 61 60 59 58 57 58 58 58 58 58 59 59 59 59 59 60 60 60 60 61 62 63 64 65 65 67 68 68 68
33 30 47 48 51 51 51 47 50 56 56 54 52 56 57 57 58 59 59 61 61 61 61 61 62 61 61 61 61 61 61 61 61 60 60 59 58 58 58 58 57 57 57 57 58 59 58 59 59 59 60 60 60 61 62 62 63 63 63 63 63 63 62
38 38 48 51 52 54 56 54 50 51 54 55 55 59 59 60 61 60 60 62 62 62 61 62 62 62 61 61 61 61 61 61 61 60 59 59 58 58 57 57 58 58 58 58 58 58 58 59 59 59 59 60 60 61 61 62 62 62 62 62 61 61 60
42 48 50 51 53 51 54 56 56 56 56 56 57 59 60 59 59 61 61 63 62 61 62 63 62 61 60 61 61 61 61 61 60 60 59 57 57 57 56 58 58 58 58 58 58 58 58 59 59 59 60 60 61 61 61 62 62 61 61 61 60 60 60
37 36 44 51 41 42 48 52 55 57 57 58 59 60 60 60 61 62 62 61 62 63 63 63 62 62 61 61 61 61 60 61 61 59 57 57 56 56 57 58 58 57 57 58 58 58 59 59 59 60 60 60 60 60 60 61 61 60 60 60 60 59 59
42 44 46 55 54 53 54 55 55 58 57 58 59 60 60 61 62 63 63 62 61 62 62 63 62 63 61 60 61 61 61 60 60 58 57 56 55 56 58 57 57 57 58 59 58 58 59 59 59 59 60 60 60 60 60 60 60 60 59 59 59 60 59
44 44 46 53 52 48 53 54 57 58 60 59 59 61 61 62 62 62 64 64 63 62 62 62 63 62 62 61 61 61 60 59 58 57 58 58 56 57 58 57 58 59 58 58 58 58 59 59 59 60 59 59 59 58 60 59 59 59 58 58 58 58 58
43 49 50 51 52 54 56 57 58 60 60 60 59 60 61 62 62 62 63 64 65 64 63 62 62 63 62 61 61 61 60 58 57 57 59 59 58 58 57 55 57 58 57 58 59 58 59 59 59 60 59 59 59 58 60 59 59 59 58 57 56 56 58

ECMWFFLT2_sfc_dewp_144.txt.gz
Dewpoint
14 11 13 14 15 16 22 16 12 13 17 11 21 22 20 21 23 22 34 28 32 34 35 40 47 50 55 54 53 55 57 57 61 62 63 64 64 64 64 64 64 65 64 64 64 65 65 66 66 67 68 68 69 69 69 70 71 70 70 72 70 70 70
21 23 17 19 16 19 16 12 13 23 22 21 25 22 31 24 21 29 27 23 22 30 29 45 49 46 51 51 50 53 58 56 55 60 64 66 67 67 67 67 67 66 66 65 64 64 66 67 66 67 69 69 70 71 70 69 69 70 68 69 68 68 69
23 25 21 18 22 22 22 26 21 17 26 24 28 25 25 24 21 24 23 24 24 27 32 39 44 44 44 50 52 52 53 55 55 57 62 66 66 67 67 67 67 67 66 66 66 66 67 68 68 67 68 68 69 69 68 67 68 67 67 66 66 67 68
22 22 19 19 19 22 26 25 22 24 26 30 27 27 26 24 22 22 26 25 27 35 32 32 40 44 47 48 49 52 53 54 56 58 60 64 66 67 68 68 68 67 66 66 67 67 67 68 69 67 67 66 66 68 68 67 67 68 68 66 67 66 66
18 18 18 15 23 22 21 20 21 23 24 29 24 29 25 23 24 23 23 21 25 36 34 41 44 49 50 51 54 55 56 57 57 60 61 64 66 67 68 68 66 67 67 66 67 69 70 70 68 66 66 65 65 66 66 67 68 66 66 66 66 67 67
15 15 22 24 24 23 20 20 23 22 25 25 22 28 26 24 23 24 22 22 29 38 45 41 44 48 51 55 54 55 57 59 63 64 64 64 65 67 67 67 67 68 68 67 68 69 68 66 66 67 65 65 66 67 66 67 65 66 64 66 69 69 69
16 26 29 29 28 28 26 22 20 22 23 23 26 21 31 29 24 24 27 22 29 40 44 50 48 52 52 53 52 54 57 62 63 64 64 66 67 67 68 68 69 69 69 69 69 69 68 67 66 66 65 65 66 67 68 67 68 68 66 66 68 70 69
22 27 28 32 29 28 23 22 24 23 19 21 23 24 29 24 30 28 26 28 30 48 52 53 53 58 56 54 52 56 56 61 64 65 64 66 66 67 68 69 69 70 70 70 70 69 69 69 68 67 67 67 68 68 69 69 69 70 70 69 69 70 70
24 23 25 25 28 27 23 23 28 24 25 25 27 30 34 25 22 25 23 23 23 44 54 56 55 57 54 53 54 55 58 61 62 63 64 65 66 66 66 68 69 69 69 67 68 69 71 70 69 68 67 68 68 69 69 69 70 71 69 70 69 70 71
22 23 21 22 26 22 19 28 37 32 25 32 30 25 31 26 33 32 26 25 33 43 51 51 51 54 55 55 55 58 60 62 61 61 63 65 65 66 67 68 68 68 67 68 68 69 70 70 70 70 71 69 69 71 70 71 70 71 71 69 70 71 71
18 21 28 20 24 22 20 26 28 27 26 27 30 30 31 26 36 34 33 30 30 34 39 45 49 50 50 53 55 56 58 60 62 64 65 65 66 68 67 67 67 67 67 67 68 69 69 70 70 71 71 71 71 71 71 70 70 70 71 71 71 71 71
21 19 23 21 19 16 17 18 26 27 28 30 30 29 29 37 32 26 32 38 30 28 32 37 41 43 49 50 53 56 57 60 62 64 65 63 66 66 67 66 66 66 66 67 68 68 69 69 70 70 70 71 71 72 71 71 70 69 68 70 72 72 71
20 19 18 19 19 17 20 20 19 27 29 31 30 31 30 36 29 24 36 37 34 31 31 35 38 42 45 46 53 56 62 63 63 64 65 65 65 66 65 66 65 66 66 67 68 68 69 69 70 70 70 71 71 71 71 72 71 70 71 71 71 71 72
18 19 19 21 18 22 19 18 20 23 26 29 27 26 28 31 33 31 32 39 35 30 34 35 48 50 51 58 61 60 59 62 64 64 64 64 65 65 65 65 65 64 65 66 67 67 67 67 68 69 70 70 71 71 71 70 71 71 71 71 71 71 71
19 19 21 20 18 19 20 19 19 18 21 22 24 22 24 31 28 28 31 36 37 42 46 52 57 58 57 56 54 57 63 62 62 63 63 65 66 65 65 65 64 64 64 65 65 66 66 67 67 68 69 70 70 70 71 71 71 71 70 70 71 71 71
19 20 18 17 18 17 17 18 19 19 18 21 21 25 24 28 31 30 29 35 31 48 53 56 58 58 55 53 57 60 61 61 63 62 62 64 66 65 65 64 64 64 64 64 64 64 66 66 67 68 68 68 69 69 70 71 71 71 71 70 70 71 71
20 19 18 17 19 19 19 19 18 20 21 21 20 23 32 31 26 28 30 31 33 50 55 52 55 54 52 55 55 57 60 62 62 62 62 65 65 65 65 63 64 64 64 64 65 65 66 67 67 67 68 68 68 69 70 71 72 71 71 71 71 71 71
23 22 19 21 24 19 19 34 31 23 20 25 24 23 25 33 36 31 36 43 50 52 52 48 54 54 55 56 61 62 61 61 62 63 64 64 65 65 64 62 63 64 64 64 65 66 65 66 67 67 67 67 67 68 69 69 70 71 71 71 71 71 71
23 26 27 23 19 19 40 35 42 36 26 27 26 27 28 33 43 44 45 46 49 50 50 54 56 58 61 62 61 61 62 65 63 64 64 64 64 65 63 61 62 64 64 65 65 65 66 66 66 66 66 66 67 67 67 67 69 69 70 71 71 70 71
24 27 25 18 20 36 32 39 40 43 35 31 32 32 29 35 37 46 45 45 52 57 60 60 61 62 61 61 63 63 65 64 64 64 63 64 64 63 62 62 64 64 64 64 65 65 65 65 64 65 65 66 66 65 66 66 67 68 69 70 70 71 70
24 23 22 21 33 30 32 34 39 34 31 32 32 27 29 32 41 45 44 54 55 57 59 60 60 61 59 57 57 62 64 64 64 64 64 64 63 62 63 64 64 64 64 64 64 64 64 64 64 65 65 65 65 65 65 66 67 67 67 68 69 70 71
25 21 20 21 23 24 26 32 28 29 26 29 30 31 29 38 40 44 47 54 55 58 59 60 60 61 55 48 48 61 63 64 64 64 63 63 63 63 63 64 64 64 64 64 64 63 64 64 64 65 65 65 65 65 65 65 66 66 66 67 68 69 70
27 26 23 21 24 26 30 28 29 32 39 33 38 29 24 39 43 45 49 52 54 57 58 60 61 54 43 36 45 59 65 65 65 65 64 63 62 63 63 63 63 64 64 64 64 64 64 64 64 65 65 65 64 64 65 65 66 66 66 66 67 68 69
25 25 22 21 27 25 37 38 31 38 38 38 34 24 24 41 42 44 48 52 55 57 59 60 58 47 34 34 54 60 64 64 65 64 63 62 62 62 62 62 63 63 63 63 63 63 63 64 64 64 65 64 64 64 64 65 65 66 66 67 67 68 68
24 30 24 22 27 36 41 44 41 40 41 37 26 23 24 43 43 44 47 52 55 59 60 57 53 50 52 56 57 60 63 63 64 63 62 61 62 61 60 60 62 61 62 62 62 62 63 64 64 64 64 64 64 64 65 65 65 66 67 68 68 69 69
21 24 22 21 24 34 40 43 41 45 42 30 23 46 55 46 48 48 47 50 56 59 60 55 48 55 52 55 56 60 60 60 62 60 60 60 59 60 61 61 61 60 61 62 62 62 63 63 64 64 64 64 64 65 65 65 66 67 67 68 68 69 69
27 27 24 24 22 38 38 49 47 49 33 28 43 52 52 47 47 48 50 53 56 58 55 53 56 52 52 54 59 60 59 59 60 60 60 61 60 60 60 60 60 59 60 60 60 62 62 63 63 63 64 63 64 64 64 65 66 66 67 67 68 69 69
25 31 31 27 30 41 46 42 34 43 39 47 46 46 47 55 48 49 53 55 58 55 52 53 53 53 57 60 61 61 60 61 61 60 61 61 61 61 58 59 60 60 61 60 60 62 62 63 63 63 63 63 63 63 64 65 65 66 66 67 68 69 69
33 34 33 47 48 46 44 43 52 55 47 45 53 45 42 51 50 53 50 57 57 53 52 53 55 56 56 60 61 62 61 60 60 59 60 60 60 59 59 57 60 60 60 61 61 62 61 62 62 63 63 62 63 63 64 64 65 65 66 66 67 67 69
44 41 39 42 43 44 45 42 50 50 49 40 45 47 42 47 55 53 51 52 52 54 56 54 55 55 60 63 62 62 62 61 60 61 61 60 60 57 57 59 60 60 60 61 61 62 62 61 61 62 63 63 63 63 64 64 64 64 65 66 66 67 67
37 33 45 45 48 50 48 47 48 55 54 56 52 53 49 54 53 52 52 52 55 56 58 57 57 60 63 63 63 63 62 61 60 59 60 60 60 60 60 60 60 59 60 59 61 62 61 61 61 60 62 63 63 63 64 64 64 65 64 64 64 64 64
37 38 44 43 42 51 52 49 47 49 49 55 57 60 53 55 55 57 59 57 57 58 57 58 59 62 63 63 64 62 62 61 61 61 60 60 59 60 60 60 61 61 61 61 61 61 61 61 62 62 62 63 63 63 63 63 63 63 62 62 62 61 61
38 40 40 41 46 43 46 53 52 53 55 54 55 58 55 56 58 60 60 59 59 57 57 60 61 63 63 63 63 62 60 60 60 61 61 60 60 60 60 60 60 61 61 60 61 61 61 61 62 63 63 63 63 62 62 63 62 61 61 61 61 60 60
41 40 42 46 42 42 47 50 53 55 56 57 58 58 55 54 57 60 60 62 62 61 62 62 61 63 63 63 64 62 60 60 62 61 60 59 59 60 60 60 60 61 61 61 60 60 61 62 62 62 62 62 62 61 61 61 61 61 61 60 60 59 58
39 47 47 52 51 50 50 53 52 55 54 54 55 56 56 56 59 60 61 62 63 63 63 62 61 63 63 63 62 61 60 60 61 61 59 59 58 59 59 59 60 60 60 60 60 60 61 61 62 61 62 62 62 62 62 62 60 61 61 60 59 58 58
43 44 46 50 51 48 50 51 54 55 58 56 54 56 57 58 59 59 60 60 61 63 63 63 62 63 63 62 60 60 60 62 61 59 59 58 58 58 58 59 60 60 59 59 59 60 61 61 61 61 60 61 61 60 61 61 60 60 60 58 57 57 56
43 47 49 52 54 52 52 54 55 57 60 58 53 56 59 60 59 59 59 60 61 61 62 63 65 64 63 62 61 60 61 61 60 60 60 59 58 58 56 56 58 59 59 59 58 59 60 61 61 61 60 60 61 60 62 61 60 60 59 57 55 54 55